| time (UTC) | temp F | wind direction | speed knots | gust knots | rain 1hr in | rain 24hr in | rain mn in | humidity % | barometer mb |
| 20260906123151 | 77 | 38 | 0.0 | 0.0 | 0.00 | 0.00 | 0.00 | 80 | 1014.1 |
| 20260906122649 | 77 | 38 | 0.0 | 0.0 | 0.00 | 0.00 | 0.00 | 80 | 1014.2 |
| 20260906122145 | 77 | 38 | 0.0 | 0.0 | 0.00 | 0.00 | 0.00 | 80 | 1014.1 |
| 20260906121642 | 77 | 38 | 0.0 | 0.0 | 0.00 | 0.00 | 0.00 | 80 | 1013.9 |
| 20260906121138 | 77 | 38 | 0.0 | 0.0 | 0.00 | 0.00 | 0.00 | 79 | 1014.2 |
| 20260906120633 | 76 | 38 | 0.9 | 0.0 | 0.00 | 0.00 | 0.00 | 80 | 1013.8 |
| 20260906120131 | 76 | 38 | 0.0 | 0.0 | 0.00 | 0.00 | 0.00 | 80 | 1013.7 |
| 20260906115631 | 76 | 38 | 0.0 | 0.0 | 0.00 | 0.00 | 0.00 | 80 | 1013.5 |
| 20260906115126 | 76 | 38 | 0.0 | 0.0 | 0.00 | 0.00 | 0.00 | 80 | 1013.5 |
| 20260906114625 | 76 | 38 | 0.0 | 0.0 | 0.00 | 0.00 | 0.00 | 80 | 1013.4 |
| 20260906114120 | 76 | 38 | 0.0 | 0.0 | 0.00 | 0.00 | 0.00 | 80 | 1013.4 |
| 20260906113620 | 76 | 38 | 0.0 | 0.0 | 0.00 | 0.00 | 0.00 | 80 | 1013.2 |
| 20260906113120 | 76 | 38 | 0.0 | 0.0 | 0.00 | 0.00 | 0.00 | 79 | 1013.2 |
| 20260906112620 | 76 | 38 | 0.0 | 0.0 | 0.00 | 0.00 | 0.00 | 79 | 1013.4 |
| 20260906112117 | 77 | 38 | 0.0 | 0.0 | 0.00 | 0.00 | 0.00 | 79 | 1013.3 |
| 20260906111616 | 77 | 38 | 0.0 | 0.0 | 0.00 | 0.00 | 0.00 | 78 | 1013.4 |
| 20260906111111 | 77 | 38 | 0.0 | 0.0 | 0.00 | 0.00 | 0.00 | 78 | 1013.2 |
| 20260906110606 | 77 | 38 | 0.0 | 0.0 | 0.00 | 0.00 | 0.00 | 78 | 1013.1 |
| 20260906110106 | 77 | 38 | 0.0 | 0.0 | 0.00 | 0.00 | 0.00 | 77 | 1013.0 |
| 20260906105600 | 77 | 38 | 0.0 | 0.0 | 0.00 | 0.00 | 0.00 | 77 | 1012.9 |
| 20260906105056 | 77 | 38 | 0.0 | 0.0 | 0.00 | 0.00 | 0.00 | 76 | 1012.9 |
| 20260906104555 | 77 | 38 | 0.9 | 0.9 | 0.00 | 0.00 | 0.00 | 76 | 1012.9 |
| 20260906104050 | 77 | 38 | 0.0 | 0.0 | 0.00 | 0.00 | 0.00 | 77 | 1012.8 |
| 20260906103548 | 77 | 38 | 0.0 | 0.0 | 0.00 | 0.00 | 0.00 | 76 | 1012.8 |
| 20260906103044 | 77 | 38 | 0.0 | 0.0 | 0.00 | 0.00 | 0.00 | 76 | 1012.7 |
| 20260906102544 | 78 | 38 | 0.0 | 0.0 | 0.00 | 0.00 | 0.00 | 76 | 1012.7 |
| 20260906102039 | 78 | 38 | 0.0 | 0.0 | 0.00 | 0.00 | 0.00 | 76 | 1012.7 |
| 20260906101539 | 78 | 38 | 0.0 | 0.0 | 0.00 | 0.00 | 0.00 | 76 | 1012.7 |
| 20260906101033 | 77 | 38 | 0.0 | 0.0 | 0.00 | 0.00 | 0.00 | 76 | 1012.7 |
| 20260906100529 | 77 | 38 | 0.9 | 0.9 | 0.00 | 0.00 | 0.00 | 76 | 1012.7 |
| 20260906100029 | 78 | 38 | 0.0 | 0.0 | 0.00 | 0.00 | 0.00 | 76 | 1012.8 |
| 20260906095524 | 78 | 38 | 0.0 | 0.0 | 0.00 | 0.00 | 0.00 | 75 | 1012.8 |
| 20260906095020 | 78 | 37 | 0.0 | 0.0 | 0.00 | 0.00 | 0.00 | 75 | 1012.8 |
| 20260906094518 | 78 | 38 | 0.0 | 0.0 | 0.00 | 0.00 | 0.00 | 74 | 1012.9 |
| 20260906094014 | 78 | 38 | 0.0 | 0.0 | 0.00 | 0.00 | 0.00 | 74 | 1013.1 |
| 20260906093510 | 78 | 38 | 0.0 | 0.0 | 0.00 | 0.00 | 0.00 | 74 | 1013.0 |
| 20260906093010 | 78 | 38 | 0.0 | 0.0 | 0.00 | 0.00 | 0.00 | 74 | 1013.3 |
| 20260906092505 | 78 | 38 | 0.0 | 0.0 | 0.00 | 0.00 | 0.00 | 73 | 1013.4 |
| 20260906092000 | 78 | 38 | 0.0 | 0.9 | 0.00 | 0.00 | 0.00 | 74 | 1013.4 |
| 20260906091455 | 78 | 38 | 0.0 | 0.0 | 0.00 | 0.00 | 0.00 | 74 | 1013.5 |
| 20260906090952 | 78 | 38 | 0.0 | 0.0 | 0.00 | 0.00 | 0.00 | 74 | 1013.4 |
| 20260906090447 | 78 | 38 | 0.0 | 0.0 | 0.00 | 0.00 | 0.00 | 74 | 1013.3 |
| 20260906085947 | 79 | 38 | 0.0 | 0.0 | 0.00 | 0.00 | 0.00 | 73 | 1013.6 |
| 20260906085446 | 79 | 38 | 0.9 | 0.9 | 0.00 | 0.00 | 0.00 | 73 | 1013.6 |
| 20260906084945 | 79 | 38 | 0.9 | 0.9 | 0.00 | 0.00 | 0.00 | 73 | 1013.6 |
| 20260906084440 | 79 | 45 | 0.0 | 0.0 | 0.00 | 0.00 | 0.00 | 73 | 1013.8 |
| 20260906083939 | 79 | 45 | 0.0 | 0.0 | 0.00 | 0.00 | 0.00 | 73 | 1013.7 |
| 20260906083435 | 79 | 46 | 0.0 | 0.0 | 0.00 | 0.00 | 0.00 | 73 | 1013.7 |
| 20260906082934 | 79 | 45 | 0.9 | 0.9 | 0.00 | 0.00 | 0.00 | 73 | 1013.7 |
| 20260906082430 | 79 | 46 | 0.0 | 0.0 | 0.00 | 0.00 | 0.00 | 72 | 1013.5 |
| 20260906081925 | 79 | 46 | 0.9 | 0.9 | 0.00 | 0.00 | 0.00 | 72 | 1013.3 |
| 20260906081421 | 79 | 98 | 0.0 | 0.9 | 0.00 | 0.00 | 0.00 | 72 | 1013.3 |
| 20260906080917 | 79 | 152 | 0.0 | 0.0 | 0.00 | 0.00 | 0.00 | 73 | 1013.3 |
| 20260906080413 | 78 | 152 | 0.9 | 0.9 | 0.00 | 0.00 | 0.00 | 74 | 1013.2 |
| 20260906075912 | 78 | 152 | 0.0 | 0.0 | 0.00 | 0.00 | 0.00 | 74 | 1013.0 |
| 20260906075408 | 78 | 152 | 0.0 | 0.0 | 0.00 | 0.00 | 0.00 | 75 | 1013.0 |
| 20260906074903 | 78 | 152 | 0.0 | 0.0 | 0.00 | 0.00 | 0.00 | 75 | 1013.1 |
| 20260906074402 | 78 | 152 | 0.0 | 0.0 | 0.00 | 0.00 | 0.00 | 75 | 1013.0 |
| 20260906073901 | 78 | 152 | 0.0 | 0.0 | 0.00 | 0.00 | 0.00 | 75 | 1012.9 |
| 20260906073356 | 78 | 152 | 0.0 | 0.0 | 0.00 | 0.00 | 0.00 | 76 | 1012.7 |
| 20260906072853 | 78 | 152 | 0.9 | 0.0 | 0.00 | 0.00 | 0.00 | 77 | 1012.9 |
| 20260906072348 | 78 | 151 | 0.0 | 0.0 | 0.00 | 0.00 | 0.00 | 78 | 1012.9 |
| 20260906071844 | 78 | 152 | 0.9 | 0.9 | 0.00 | 0.00 | 0.00 | 78 | 1012.8 |
| 20260906071339 | 78 | 146 | 0.0 | 0.0 | 0.00 | 0.00 | 0.00 | 79 | 1013.0 |
| 20260906070835 | 78 | 146 | 0.9 | 0.9 | 0.00 | 0.00 | 0.00 | 80 | 1013.1 |
| 20260906070331 | 78 | 72 | 0.9 | 0.9 | 0.00 | 0.00 | 0.00 | 80 | 1013.3 |
| 20260906065826 | 78 | 73 | 0.9 | 0.9 | 0.00 | 0.00 | 0.00 | 81 | 1013.7 |
| 20260906065321 | 78 | 79 | 0.9 | 0.9 | 0.00 | 0.00 | 0.00 | 81 | 1013.8 |
| 20260906064817 | 77 | 88 | 0.0 | 0.0 | 0.00 | 0.00 | 0.00 | 81 | 1013.5 |
| 20260906064313 | 77 | 88 | 0.0 | 0.0 | 0.00 | 0.00 | 0.00 | 80 | 1013.5 |
| 20260906063813 | 78 | 88 | 0.0 | 0.0 | 0.00 | 0.00 | 0.00 | 79 | 1013.5 |
| 20260906063308 | 78 | 88 | 0.9 | 0.9 | 0.00 | 0.00 | 0.00 | 79 | 1013.6 |
| 20260906062803 | 77 | 88 | 0.9 | 0.9 | 0.00 | 0.00 | 0.00 | 79 | 1013.6 |
| 20260906062305 | 77 | 88 | 0.0 | 0.0 | 0.00 | 0.00 | 0.00 | 79 | 1013.5 |
| 20260906061758 | 78 | 88 | 0.0 | 0.0 | 0.00 | 0.00 | 0.00 | 78 | 1013.6 |
| 20260906061254 | 78 | 88 | 0.9 | 0.9 | 0.00 | 0.00 | 0.00 | 78 | 1013.7 |
| 20260906060749 | 78 | 88 | 0.0 | 0.0 | 0.00 | 0.00 | 0.00 | 79 | 1013.4 |
| 20260906060247 | 78 | 88 | 0.0 | 0.0 | 0.00 | 0.00 | 0.00 | 80 | 1013.5 |
| 20260906055742 | 78 | 88 | 0.0 | 0.0 | 0.00 | 0.00 | 0.00 | 81 | 1013.2 |
| 20260906055237 | 78 | 88 | 0.0 | 0.0 | 0.00 | 0.00 | 0.00 | 80 | 1013.3 |
| 20260906054732 | 78 | 88 | 0.0 | 0.0 | 0.00 | 0.00 | 0.00 | 80 | 1013.0 |
| 20260906054228 | 78 | 88 | 0.0 | 0.0 | 0.00 | 0.00 | 0.00 | 80 | 1013.2 |
| 20260906053724 | 78 | 88 | 0.0 | 0.0 | 0.00 | 0.00 | 0.00 | 79 | 1013.2 |
| 20260906053220 | 78 | 88 | 0.0 | 0.0 | 0.00 | 0.00 | 0.00 | 78 | 1013.0 |
| 20260906052715 | 78 | 88 | 0.0 | 0.0 | 0.00 | 0.00 | 0.00 | 78 | 1013.2 |
| 20260906052211 | 78 | 88 | 0.0 | 0.0 | 0.00 | 0.00 | 0.00 | 78 | 1013.0 |
| 20260906051708 | 78 | 88 | 0.0 | 0.0 | 0.00 | 0.00 | 0.00 | 78 | 1013.0 |
| 20260906051207 | 78 | 88 | 0.0 | 0.0 | 0.00 | 0.00 | 0.00 | 78 | 1013.5 |
| 20260906050702 | 79 | 88 | 0.0 | 0.0 | 0.00 | 0.00 | 0.00 | 78 | 1013.4 |
| 20260906050157 | 79 | 88 | 0.0 | 0.0 | 0.00 | 0.00 | 0.00 | 78 | 1013.3 |
| 20260906045655 | 79 | 88 | 0.0 | 0.0 | 0.00 | 0.00 | 0.00 | 77 | 1013.4 |
| 20260906045151 | 79 | 88 | 0.0 | 0.0 | 0.00 | 0.00 | 0.00 | 76 | 1013.5 |
| 20260906044647 | 79 | 88 | 0.0 | 0.0 | 0.00 | 0.00 | 0.00 | 75 | 1013.6 |
| 20260906044142 | 79 | 88 | 0.0 | 0.0 | 0.00 | 0.00 | 0.00 | 76 | 1013.5 |
| 20260906043638 | 79 | 88 | 0.0 | 0.0 | 0.00 | 0.00 | 0.00 | 75 | 1013.7 |
| 20260906043134 | 79 | 88 | 0.0 | 0.0 | 0.00 | 0.00 | 0.00 | 76 | 1013.3 |
| 20260906042633 | 79 | 88 | 0.0 | 0.0 | 0.00 | 0.00 | 0.00 | 76 | 1013.5 |
| 20260906042127 | 79 | 88 | 0.0 | 0.0 | 0.00 | 0.00 | 0.00 | 75 | 1013.5 |
| 20260906041623 | 79 | 88 | 0.0 | 0.0 | 0.00 | 0.00 | 0.00 | 74 | 1013.4 |
| 20260906041118 | 79 | 88 | 0.0 | 0.0 | 0.00 | 0.00 | 0.00 | 73 | 1013.7 |
| 20260906040613 | 80 | 88 | 0.0 | 0.0 | 0.00 | 0.00 | 0.00 | 72 | 1013.8 |
| 20260906040109 | 80 | 88 | 0.0 | 0.0 | 0.00 | 0.00 | 0.00 | 72 | 1013.6 |
| 20260906035604 | 80 | 88 | 0.0 | 0.0 | 0.00 | 0.00 | 0.00 | 71 | 1013.6 |
| 20260906035100 | 80 | 88 | 0.0 | 0.0 | 0.00 | 0.00 | 0.00 | 71 | 1013.7 |
| 20260906034559 | 80 | 88 | 0.0 | 0.0 | 0.00 | 0.00 | 0.00 | 71 | 1013.7 |
| 20260906034054 | 80 | 87 | 0.9 | 0.9 | 0.00 | 0.00 | 0.00 | 70 | 1013.8 |
| 20260906033550 | 80 | 87 | 0.0 | 0.0 | 0.00 | 0.00 | 0.00 | 71 | 1013.9 |
| 20260906033045 | 80 | 87 | 0.0 | 0.0 | 0.00 | 0.00 | 0.00 | 70 | 1013.7 |
| 20260906032542 | 81 | 87 | 0.0 | 0.0 | 0.00 | 0.00 | 0.00 | 69 | 1013.6 |
| 20260906032036 | 81 | 87 | 0.0 | 0.0 | 0.00 | 0.00 | 0.00 | 69 | 1013.6 |
| 20260906031532 | 81 | 87 | 0.0 | 0.0 | 0.00 | 0.00 | 0.00 | 69 | 1013.7 |
| 20260906031027 | 80 | 86 | 0.0 | 0.0 | 0.00 | 0.00 | 0.00 | 70 | 1013.5 |
| 20260906030526 | 81 | 86 | 0.0 | 0.0 | 0.00 | 0.00 | 0.00 | 70 | 1013.7 |
| 20260906030026 | 81 | 86 | 0.0 | 0.0 | 0.00 | 0.00 | 0.00 | 69 | 1013.7 |
| 20260906025526 | 81 | 86 | 0.0 | 0.0 | 0.00 | 0.00 | 0.00 | 68 | 1013.8 |
| 20260906025024 | 81 | 86 | 0.0 | 0.0 | 0.00 | 0.00 | 0.00 | 68 | 1013.9 |
| 20260906024520 | 82 | 86 | 0.0 | 0.0 | 0.00 | 0.00 | 0.00 | 68 | 1013.7 |
| 20260906024019 | 82 | 86 | 0.0 | 0.0 | 0.00 | 0.00 | 0.00 | 68 | 1013.4 |
| 20260906023516 | 82 | 84 | 0.0 | 0.0 | 0.00 | 0.00 | 0.00 | 69 | 1013.4 |
| 20260906023011 | 82 | 48 | 0.0 | 0.0 | 0.00 | 0.00 | 0.00 | 70 | 1013.1 |
| 20260906022506 | 82 | 48 | 0.0 | 0.0 | 0.00 | 0.00 | 0.00 | 69 | 1013.3 |
| 20260906022001 | 82 | 48 | 0.0 | 0.0 | 0.00 | 0.00 | 0.00 | 69 | 1013.3 |
| 20260906021455 | 82 | 48 | 0.0 | 0.0 | 0.00 | 0.00 | 0.00 | 69 | 1013.5 |
| 20260906020950 | 82 | 48 | 0.0 | 0.0 | 0.00 | 0.00 | 0.00 | 69 | 1013.3 |
| 20260906020444 | 82 | 48 | 0.0 | 0.0 | 0.00 | 0.00 | 0.00 | 69 | 1013.3 |
| 20260906015944 | 82 | 48 | 0.0 | 0.0 | 0.00 | 0.00 | 0.00 | 68 | 1013.2 |
| 20260906015443 | 82 | 48 | 0.0 | 0.0 | 0.00 | 0.00 | 0.00 | 68 | 1013.2 |
| 20260906014943 | 82 | 48 | 0.0 | 0.0 | 0.00 | 0.00 | 0.00 | 68 | 1013.0 |
| 20260906014438 | 82 | 48 | 0.0 | 0.0 | 0.00 | 0.00 | 0.00 | 67 | 1013.0 |
| 20260906013934 | 83 | 48 | 0.0 | 0.0 | 0.00 | 0.00 | 0.00 | 67 | 1012.9 |
| 20260906013429 | 83 | 48 | 0.0 | 0.0 | 0.00 | 0.00 | 0.00 | 66 | 1012.6 |
| 20260906012925 | 83 | 48 | 0.0 | 0.9 | 0.00 | 0.00 | 0.00 | 66 | 1012.8 |
| 20260906012425 | 83 | 48 | 0.0 | 0.0 | 0.00 | 0.00 | 0.00 | 66 | 1012.6 |
| 20260906011924 | 83 | 48 | 0.0 | 0.0 | 0.00 | 0.00 | 0.00 | 65 | 1012.5 |
| 20260906011419 | 83 | 49 | 0.0 | 0.0 | 0.00 | 0.00 | 0.00 | 65 | 1012.8 |
| 20260906010915 | 84 | 56 | 0.9 | 0.9 | 0.00 | 0.00 | 0.00 | 65 | 1012.5 |
| 20260906010411 | 84 | 63 | 0.0 | 0.9 | 0.00 | 0.00 | 0.00 | 64 | 1012.5 |
| 20260906005906 | 84 | 64 | 0.0 | 0.0 | 0.00 | 0.00 | 0.00 | 64 | 1012.5 |
| 20260906005406 | 84 | 1 | 0.9 | 1.7 | 0.00 | 0.00 | 0.00 | 64 | 1012.5 |
| 20260906004905 | 84 | 351 | 1.7 | 1.7 | 0.00 | 0.00 | 0.00 | 63 | 1012.4 |
| 20260906004405 | 84 | 32 | 0.0 | 0.0 | 0.00 | 0.00 | 0.00 | 62 | 1012.5 |
| 20260906003900 | 85 | 32 | 0.0 | 0.0 | 0.00 | 0.00 | 0.00 | 62 | 1012.5 |
| 20260906003355 | 85 | 355 | 1.7 | 0.9 | 0.00 | 0.00 | 0.00 | 61 | 1012.4 |
| 20260906002851 | 85 | 344 | 0.9 | 0.9 | 0.00 | 0.00 | 0.00 | 60 | 1012.2 |
| 20260906002350 | 86 | 5 | 0.9 | 0.9 | 0.00 | 0.00 | 0.00 | 59 | 1012.4 |
| 20260906001846 | 86 | 23 | 0.9 | 0.9 | 0.00 | 0.00 | 0.00 | 58 | 1012.3 |
| 20260906001342 | 86 | 25 | 0.9 | 0.9 | 0.00 | 0.00 | 0.00 | 57 | 1012.3 |
| 20260906000836 | 86 | 56 | 0.9 | 0.9 | 0.00 | 0.00 | 0.00 | 56 | 1012.3 |
| 20260906000337 | 87 | 60 | 0.0 | 0.0 | 0.00 | 0.00 | 0.00 | 55 | 1012.2 |
| 20260905235836 | 87 | 62 | 0.0 | 0.0 | 0.00 | 0.00 | 0.00 | 55 | 1012.3 |
| 20260905235331 | 87 | 21 | 0.9 | 0.9 | 0.00 | 0.00 | 0.00 | 54 | 1012.5 |
| 20260905234827 | 87 | 48 | 0.0 | 0.0 | 0.00 | 0.00 | 0.00 | 54 | 1012.7 |
| 20260905234322 | 87 | 48 | 0.0 | 0.0 | 0.00 | 0.00 | 0.00 | 53 | 1012.5 |
| 20260905233817 | 87 | 1 | 0.0 | 0.0 | 0.00 | 0.00 | 0.00 | 53 | 1012.6 |
| 20260905233312 | 88 | 64 | 0.9 | 0.9 | 0.00 | 0.00 | 0.00 | 52 | 1012.4 |
| 20260905232810 | 88 | 70 | 0.0 | 0.0 | 0.00 | 0.00 | 0.00 | 51 | 1012.5 |
| 20260905232307 | 88 | 84 | 0.9 | 0.9 | 0.00 | 0.00 | 0.00 | 51 | 1012.7 |
| 20260905231803 | 88 | 126 | 0.0 | 0.0 | 0.00 | 0.00 | 0.00 | 51 | 1012.5 |
| 20260905231258 | 88 | 114 | 0.9 | 0.9 | 0.00 | 0.00 | 0.00 | 51 | 1012.3 |
| 20260905230754 | 88 | 59 | 0.0 | 0.0 | 0.00 | 0.00 | 0.00 | 50 | 1012.1 |
| 20260905230251 | 88 | 59 | 0.9 | 1.7 | 0.00 | 0.00 | 0.00 | 50 | 1011.9 |
| 20260905225751 | 88 | 59 | 0.9 | 0.9 | 0.00 | 0.00 | 0.00 | 49 | 1012.2 |
| 20260905225246 | 88 | 56 | 2.6 | 2.6 | 0.00 | 0.00 | 0.00 | 49 | 1012.2 |
| 20260905224746 | 88 | 17 | 0.0 | 0.0 | 0.00 | 0.00 | 0.00 | 50 | 1012.1 |
| 20260905224241 | 89 | 73 | 0.9 | 0.9 | 0.00 | 0.00 | 0.00 | 50 | 1012.1 |
| 20260905223737 | 89 | 66 | 0.9 | 1.7 | 0.00 | 0.00 | 0.00 | 49 | 1011.9 |
| 20260905223234 | 89 | 8 | 0.9 | 0.9 | 0.00 | 0.00 | 0.00 | 50 | 1012.1 |
| 20260905222729 | 89 | 3 | 0.0 | 0.0 | 0.00 | 0.00 | 0.00 | 50 | 1012.3 |
| 20260905222228 | 89 | 144 | 1.7 | 2.6 | 0.00 | 0.00 | 0.00 | 49 | 1012.3 |
| 20260905221724 | 89 | 47 | 3.5 | 3.5 | 0.00 | 0.00 | 0.00 | 49 | 1012.4 |
| 20260905221221 | 89 | 14 | 1.7 | 1.7 | 0.00 | 0.00 | 0.00 | 48 | 1012.3 |
| 20260905220717 | 90 | 45 | 0.9 | 0.9 | 0.00 | 0.00 | 0.00 | 48 | 1012.5 |
| 20260905220212 | 91 | 70 | 1.7 | 1.7 | 0.00 | 0.00 | 0.00 | 47 | 1012.7 |
| 20260905215712 | 91 | 40 | 0.9 | 0.9 | 0.00 | 0.00 | 0.00 | 47 | 1012.9 |
| 20260905215208 | 90 | 40 | 0.9 | 1.7 | 0.00 | 0.00 | 0.00 | 48 | 1012.8 |
| 20260905214704 | 90 | 40 | 2.6 | 2.6 | 0.00 | 0.00 | 0.00 | 48 | 1012.8 |
| 20260905214158 | 90 | 331 | 2.6 | 2.6 | 0.00 | 0.00 | 0.00 | 48 | 1012.8 |
| 20260905213654 | 90 | 331 | 2.6 | 3.5 | 0.00 | 0.00 | 0.00 | 48 | 1012.9 |
| 20260905213150 | 91 | 321 | 2.6 | 1.7 | 0.00 | 0.00 | 0.00 | 48 | 1012.8 |
| 20260905212645 | 91 | 51 | 1.7 | 3.5 | 0.00 | 0.00 | 0.00 | 49 | 1012.9 |
| 20260905212144 | 90 | 5 | 0.9 | 0.9 | 0.00 | 0.00 | 0.00 | 51 | 1013.0 |
| 20260905211638 | 90 | 285 | 2.6 | 3.5 | 0.00 | 0.00 | 0.00 | 52 | 1012.9 |
| 20260905211134 | 90 | 353 | 2.6 | 2.6 | 0.00 | 0.00 | 0.00 | 53 | 1012.8 |
| 20260905210631 | 89 | 24 | 1.7 | 2.6 | 0.00 | 0.00 | 0.00 | 54 | 1012.6 |
| 20260905210125 | 89 | 335 | 1.7 | 1.7 | 0.00 | 0.00 | 0.00 | 56 | 1012.9 |
| 20260905205624 | 89 | 10 | 4.3 | 5.2 | 0.00 | 0.00 | 0.00 | 55 | 1012.8 |
| 20260905205124 | 89 | 345 | 1.7 | 3.5 | 0.00 | 0.00 | 0.00 | 54 | 1012.8 |
| 20260905204623 | 89 | 348 | 2.6 | 2.6 | 0.00 | 0.00 | 0.00 | 54 | 1012.7 |
| 20260905204119 | 89 | 4 | 0.9 | 1.7 | 0.00 | 0.00 | 0.00 | 53 | 1012.6 |
| 20260905203619 | 89 | 15 | 3.5 | 3.5 | 0.00 | 0.00 | 0.00 | 54 | 1012.9 |
| 20260905203114 | 90 | 25 | 1.7 | 1.7 | 0.00 | 0.00 | 0.00 | 53 | 1012.8 |
| 20260905202610 | 91 | 50 | 5.2 | 6.1 | 0.00 | 0.00 | 0.00 | 52 | 1012.7 |
| 20260905202105 | 95 | 14 | 4.3 | 6.1 | 0.00 | 0.00 | 0.00 | 48 | 1012.7 |
| 20260905201601 | 96 | 28 | 3.5 | 3.5 | 0.00 | 0.00 | 0.00 | 43 | 1012.9 |
| 20260905201100 | 96 | 253 | 0.9 | 1.7 | 0.00 | 0.00 | 0.00 | 42 | 1012.8 |
| 20260905200556 | 96 | 256 | 1.7 | 1.7 | 0.00 | 0.00 | 0.00 | 42 | 1012.7 |
| 20260905200050 | 95 | 258 | 1.7 | 1.7 | 0.00 | 0.00 | 0.00 | 42 | 1012.6 |
| 20260905195550 | 94 | 264 | 0.9 | 0.9 | 0.00 | 0.00 | 0.00 | 44 | 1012.8 |
| 20260905195045 | 94 | 264 | 0.9 | 0.9 | 0.00 | 0.00 | 0.00 | 44 | 1013.0 |
| 20260905194544 | 93 | 330 | 0.9 | 0.9 | 0.00 | 0.00 | 0.00 | 47 | 1012.7 |
| 20260905194044 | 92 | 37 | 0.9 | 0.9 | 0.00 | 0.00 | 0.00 | 48 | 1013.0 |
| 20260905193539 | 92 | 37 | 0.9 | 0.9 | 0.00 | 0.00 | 0.00 | 48 | 1013.1 |
| 20260905193035 | 92 | 37 | 0.9 | 0.9 | 0.00 | 0.00 | 0.00 | 47 | 1012.9 |
| 20260905192529 | 91 | 38 | 0.9 | 0.9 | 0.00 | 0.00 | 0.00 | 50 | 1013.1 |
| 20260905192026 | 90 | 37 | 0.9 | 0.9 | 0.00 | 0.00 | 0.00 | 54 | 1013.0 |
| 20260905191524 | 90 | 31 | 0.9 | 0.9 | 0.00 | 0.00 | 0.00 | 52 | 1013.2 |
| 20260905191024 | 90 | 31 | 0.9 | 0.9 | 0.00 | 0.00 | 0.00 | 53 | 1013.3 |
| 20260905190521 | 90 | 63 | 0.9 | 0.9 | 0.00 | 0.00 | 0.00 | 54 | 1013.2 |
| 20260905190016 | 89 | 59 | 0.9 | 0.9 | 0.00 | 0.00 | 0.00 | 48 | 1013.4 |
| 20260905185516 | 89 | 340 | 0.0 | 0.9 | 0.00 | 0.00 | 0.00 | 51 | 1013.4 |
| 20260905185015 | 88 | 340 | 0.9 | 0.9 | 0.00 | 0.00 | 0.00 | 49 | 1013.3 |
| 20260905184510 | 88 | 346 | 0.9 | 0.9 | 0.00 | 0.00 | 0.00 | 55 | 1013.4 |
| 20260905184008 | 89 | 347 | 0.0 | 0.0 | 0.00 | 0.00 | 0.00 | 54 | 1013.4 |
| 20260905183503 | 89 | 347 | 1.7 | 1.7 | 0.00 | 0.00 | 0.00 | 52 | 1013.5 |
| 20260905183003 | 91 | 39 | 2.6 | 3.5 | 0.00 | 0.00 | 0.00 | 51 | 1013.7 |
| 20260905182502 | 94 | 299 | 3.5 | 6.1 | 0.00 | 0.00 | 0.00 | 40 | 1013.5 |
| 20260905181957 | 93 | 0 | 2.6 | 3.5 | 0.00 | 0.00 | 0.00 | 42 | 1013.5 |
| 20260905181452 | 94 | 351 | 5.2 | 7.8 | 0.00 | 0.00 | 0.00 | 45 | 1013.7 |
| 20260905180951 | 97 | 323 | 3.5 | 5.2 | 0.00 | 0.00 | 0.00 | 43 | 1013.8 |
| 20260905180446 | 97 | 48 | 3.5 | 5.2 | 0.00 | 0.00 | 0.00 | 42 | 1013.7 |
| 20260905175941 | 96 | 56 | 0.9 | 0.9 | 0.00 | 0.00 | 0.00 | 43 | 1013.7 |
| 20260905175441 | 96 | 27 | 1.7 | 1.7 | 0.00 | 0.00 | 0.00 | 42 | 1013.7 |
| 20260905174936 | 97 | 57 | 1.7 | 1.7 | 0.00 | 0.00 | 0.00 | 42 | 1013.5 |
| 20260905174432 | 98 | 16 | 0.9 | 1.7 | 0.00 | 0.00 | 0.00 | 41 | 1013.6 |
| 20260905173927 | 98 | 358 | 1.7 | 1.7 | 0.00 | 0.00 | 0.00 | 42 | 1013.7 |
| 20260905173424 | 98 | 108 | 0.9 | 0.9 | 0.00 | 0.00 | 0.00 | 43 | 1013.6 |
| 20260905172919 | 98 | 36 | 2.6 | 2.6 | 0.00 | 0.00 | 0.00 | 42 | 1013.9 |
| 20260905172416 | 98 | 61 | 0.9 | 0.9 | 0.00 | 0.00 | 0.00 | 42 | 1013.8 |
| 20260905171912 | 98 | 46 | 0.9 | 1.7 | 0.00 | 0.00 | 0.00 | 42 | 1013.9 |
| 20260905171409 | 98 | 45 | 2.6 | 2.6 | 0.00 | 0.00 | 0.00 | 41 | 1014.1 |
| 20260905170905 | 98 | 73 | 0.9 | 0.9 | 0.00 | 0.00 | 0.00 | 43 | 1013.9 |
| 20260905170401 | 98 | 349 | 0.9 | 0.9 | 0.00 | 0.00 | 0.00 | 42 | 1013.8 |
| 20260905165900 | 97 | 64 | 0.9 | 0.9 | 0.00 | 0.00 | 0.00 | 42 | 1014.1 |
| 20260905165355 | 97 | 17 | 2.6 | 3.5 | 0.00 | 0.00 | 0.00 | 43 | 1014.1 |
| 20260905164850 | 98 | 78 | 1.7 | 0.9 | 0.00 | 0.00 | 0.00 | 43 | 1014.5 |
| 20260905164345 | 97 | 26 | 0.9 | 0.9 | 0.00 | 0.00 | 0.00 | 45 | 1014.3 |
| 20260905163840 | 97 | 339 | 4.3 | 5.2 | 0.00 | 0.00 | 0.00 | 42 | 1014.5 |
| 20260905163336 | 97 | 12 | 0.9 | 0.9 | 0.00 | 0.00 | 0.00 | 46 | 1014.5 |
| 20260905162832 | 97 | 42 | 1.7 | 2.6 | 0.00 | 0.00 | 0.00 | 44 | 1014.7 |
| 20260905162332 | 97 | 58 | 0.0 | 0.0 | 0.00 | 0.00 | 0.00 | 46 | 1014.7 |
| 20260905161827 | 96 | 332 | 0.9 | 0.9 | 0.00 | 0.00 | 0.00 | 47 | 1014.7 |
| 20260905161326 | 96 | 346 | 0.0 | 0.0 | 0.00 | 0.00 | 0.00 | 49 | 1014.8 |
| 20260905160825 | 95 | 347 | 0.9 | 0.9 | 0.00 | 0.00 | 0.00 | 49 | 1014.9 |
| 20260905160319 | 95 | 65 | 1.7 | 1.7 | 0.00 | 0.00 | 0.00 | 48 | 1014.9 |
| 20260905155814 | 96 | 112 | 0.0 | 0.9 | 0.00 | 0.00 | 0.00 | 49 | 1014.9 |
| 20260905155313 | 95 | 107 | 0.0 | 0.0 | 0.00 | 0.00 | 0.00 | 50 | 1015.0 |
| 20260905154807 | 95 | 88 | 0.9 | 0.9 | 0.00 | 0.00 | 0.00 | 50 | 1014.9 |
| 20260905154302 | 95 | 49 | 0.9 | 0.9 | 0.00 | 0.00 | 0.00 | 51 | 1015.2 |
| 20260905153758 | 95 | 21 | 0.9 | 0.9 | 0.00 | 0.00 | 0.00 | 50 | 1015.1 |
| 20260905153254 | 95 | 62 | 1.7 | 1.7 | 0.00 | 0.00 | 0.00 | 50 | 1015.2 |
| 20260905152748 | 94 | 125 | 1.7 | 1.7 | 0.00 | 0.00 | 0.00 | 52 | 1015.2 |
| 20260905152248 | 94 | 42 | 0.0 | 0.0 | 0.00 | 0.00 | 0.00 | 52 | 1015.2 |
| 20260905151747 | 93 | 40 | 1.7 | 2.6 | 0.00 | 0.00 | 0.00 | 53 | 1015.3 |
| 20260905151244 | 93 | 6 | 0.0 | 0.0 | 0.00 | 0.00 | 0.00 | 54 | 1015.2 |
| 20260905150743 | 92 | 32 | 0.9 | 0.9 | 0.00 | 0.00 | 0.00 | 54 | 1015.3 |
| 20260905150243 | 92 | 33 | 0.9 | 0.0 | 0.00 | 0.00 | 0.00 | 56 | 1015.1 |
| 20260905145741 | 92 | 33 | 0.0 | 0.0 | 0.00 | 0.00 | 0.00 | 55 | 1015.3 |
| 20260905145236 | 91 | 22 | 0.9 | 0.9 | 0.00 | 0.00 | 0.00 | 56 | 1015.3 |
| 20260905144735 | 91 | 8 | 0.9 | 0.9 | 0.00 | 0.00 | 0.00 | 56 | 1015.4 |
| 20260905144230 | 90 | 9 | 0.9 | 0.9 | 0.00 | 0.00 | 0.00 | 58 | 1015.5 |
| 20260905143729 | 90 | 5 | 0.9 | 0.9 | 0.00 | 0.00 | 0.00 | 58 | 1015.5 |
| 20260905143229 | 89 | 45 | 0.9 | 0.9 | 0.00 | 0.00 | 0.00 | 59 | 1015.5 |
| 20260905142727 | 89 | 106 | 0.9 | 0.9 | 0.00 | 0.00 | 0.00 | 59 | 1015.6 |
| 20260905142222 | 89 | 69 | 0.0 | 0.0 | 0.00 | 0.00 | 0.00 | 62 | 1015.5 |
| 20260905141718 | 88 | 45 | 0.0 | 0.0 | 0.00 | 0.00 | 0.00 | 62 | 1015.6 |
| 20260905141214 | 87 | 50 | 0.0 | 0.0 | 0.00 | 0.00 | 0.00 | 62 | 1015.6 |
| 20260905140709 | 87 | 40 | 0.9 | 0.9 | 0.00 | 0.00 | 0.00 | 63 | 1015.6 |
| 20260905140203 | 87 | 36 | 0.9 | 0.9 | 0.00 | 0.00 | 0.00 | 63 | 1015.6 |
| 20260905135657 | 85 | 37 | 0.0 | 0.0 | 0.00 | 0.00 | 0.00 | 68 | 1015.8 |
| 20260905135154 | 84 | 37 | 0.0 | 0.0 | 0.00 | 0.00 | 0.00 | 69 | 1015.7 |
| 20260905134653 | 84 | 71 | 1.7 | 1.7 | 0.00 | 0.00 | 0.00 | 71 | 1015.7 |
| 20260905134152 | 84 | 59 | 0.0 | 0.0 | 0.00 | 0.00 | 0.00 | 72 | 1015.7 |
| 20260905133648 | 84 | 74 | 0.0 | 0.0 | 0.00 | 0.00 | 0.00 | 72 | 1015.7 |
| 20260905133147 | 84 | 78 | 0.9 | 0.9 | 0.00 | 0.00 | 0.00 | 72 | 1016.0 |
| 20260905132647 | 83 | 87 | 0.9 | 0.9 | 0.00 | 0.00 | 0.00 | 72 | 1015.9 |
| 20260905132142 | 83 | 87 | 0.0 | 0.0 | 0.00 | 0.00 | 0.00 | 74 | 1015.9 |
| 20260905131638 | 82 | 87 | 0.9 | 0.9 | 0.00 | 0.00 | 0.00 | 75 | 1016.1 |
| 20260905131138 | 82 | 87 | 0.9 | 0.9 | 0.00 | 0.00 | 0.00 | 75 | 1016.0 |
| 20260905130633 | 82 | 125 | 0.0 | 0.0 | 0.00 | 0.00 | 0.00 | 77 | 1016.0 |
| 20260905130133 | 81 | 126 | 0.0 | 0.0 | 0.00 | 0.00 | 0.00 | 76 | 1016.0 |
| 20260905125632 | 81 | 24 | 0.9 | 0.9 | 0.00 | 0.00 | 0.00 | 76 | 1016.1 |
| 20260905125128 | 81 | 24 | 0.0 | 0.0 | 0.00 | 0.00 | 0.00 | 77 | 1015.9 |
| 20260905124625 | 80 | 24 | 0.0 | 0.0 | 0.00 | 0.00 | 0.00 | 78 | 1015.9 |
| 20260905124120 | 80 | 24 | 0.9 | 0.9 | 0.00 | 0.00 | 0.00 | 79 | 1015.9 |
| 20260905123615 | 80 | 24 | 0.0 | 0.0 | 0.00 | 0.00 | 0.00 | 79 | 1016.0 |